Torna al catalogo

FENGYUN 1C DEB

AttivoSSO
NORAD 30199·DEBRIS·🇨🇳 China

Lanciato May 10, 1999 da Taiyuan Satellite Launch Center

Loading…

Prossimi Passaggi (prossime 24 ore)

TLE

AggiornatoSource: Space-Track

Epoca: Sep 14, 2026, 00:18 UTC

1 30199U 99025VG  26257.01256329  .00001414  00000-0  44840-3 0  9990
2 30199  98.3667 279.4056 0076783 200.8583 190.4468 14.39866636 23709

Traccia FENGYUN 1C DEB in tempo reale con AllMySat

Download on the App Store